Regional Weather Roundup
Issued by NWS

Home | Current Version | Previous Version | Text Only | Print | Product List | Glossary On
Versions: 1 2 3 4 5 6 7 8 9 10 11 12 13 14 15 16 17 18 19 20 21 22 23 24 25
000
ASUS45 KTFX 210110
RWRMT
MONTANA REGIONAL WEATHER ROUNDUP
NATIONAL WEATHER SERVICE GREAT FALLS MT
700 PM MDT WED SEP 20 2017

NOTE: "FAIR" INDICATES FEW OR NO CLOUDS BELOW 12000 FEET WITH NO
SIGNIFICANT WEATHER AND/OR OBSTRUCTIONS TO VISIBILITY.

MTZ001>007-043-210200-
WEST OF THE DIVIDE

CITY           SKY/WX    TMP DP  RH WIND       PRES   REMARKS
KALISPELL      CLOUDY     9   3  77 S10       29.62R WCI  -5
MISSOULA       CLOUDY    49  38  65 SE6       29.68R
BUTTE          LGT RAIN  40  35  83 N9        29.71S
MULLAN PASS    SNOW      32  30  92 VRB3      29.66R VSB 1/4
ANACONDA         N/A     43  30  61 SW10      29.70R
DEER LODGE       N/A     43  37  81 E7        29.69S
EUREKA           N/A     55  32  41 CALM      29.58R
HAMILTON         N/A     46  37  71 S7        29.70R
LIBBY            N/A     50  37  62 E6        29.62R
PLAINS           N/A     51  36  56 S6        29.69
RONAN            N/A     49  38  65 SE7       29.73R
THOMPSON FALLS   N/A     47  43  86 SW6       29.74R
$$

MTZ008-052>055-210200-
SOUTHWEST MONTANA

CITY           SKY/WX    TMP DP  RH WIND       PRES   REMARKS
BOZEMAN        LGT RAIN  48  41  76 SW10G21   29.69R
DILLON         CLOUDY    45  38  76 S12       29.69S
W YELLOWSTONE  CLOUDY    46  34  61 SW15G23   29.74R
ENNIS          CLOUDY    45  36  70 NW8       29.77R
THREE FORKS      N/A     51  37  58 NW6       29.71R
$$

MTZ009-010-012-014-046-048-049-054-210200-
EAST SLOPES AND CENTRAL MONTANA

CITY           SKY/WX    TMP DP  RH WIND       PRES   REMARKS
CUT BANK       CLOUDY    48  27  44 W21       29.55S
GREAT FALLS    CLOUDY    51  30  44 SW15G26   29.57R
MALMSTROM AFB  PTCLDY    53  31  43 SW20G28   29.58R
HELENA         CLOUDY    49  37  63 W5        29.66R
BOWMANS CRNR     N/A     47  32  55 S13       29.57S
CHOTEAU          N/A     50  28  43 SW13G22   29.56R
FAIRFIELD        N/A     51  29  43 SW12G22   29.55R
POWER            N/A     50  29  44 SW21G28   29.56R
RAYNESFORD     MOCLDY    52  31  45 W14G21    29.60R
ULM              N/A     51  32  48 SW16      29.59R
$$

MTZ011-013-016-021-045-047-050-051-210200-
NORTH CENTRAL MONTANA

CITY           SKY/WX    TMP DP  RH WIND       PRES   REMARKS
HAVRE          PTCLDY    56  31  38 SW14      29.52R
LEWISTOWN      MOCLDY    51  36  56 SW21      29.61R
N BAR RANCH      N/A     52  30  43 SW23      29.64R
CHINOOK          N/A     57  30  35 S6        29.52R
DENTON           N/A     55  33  44 W8        29.54S
GEYSER         MOCLDY    52  32  46 W15       29.58R
GRASS RANGE    MOCLDY    51  37  59 SW15      29.58R
JUDITH GAP       N/A     47  35  62 SW24      29.65R
WINIFRED       MOCLDY    53  33  48 W7        29.57R
$$

MTZ017>020-022>027-061-062-210200-
NORTHEAST MONTANA

CITY           SKY/WX    TMP DP  RH WIND       PRES   REMARKS
GLASGOW        CLOUDY    60  32  34 SW9       29.54R
JORDAN           N/A     58  34  40 W9        29.58R
SIDNEY         PTCLDY    64  29  26 SW12      29.59R
WOLF POINT     PTCLDY    64  33  31 SW13G25   29.57R
MALTA          CLEAR     57  30  35 W8        29.52S
PLENTYWOOD       N/A     61  30  31 CALM      29.57S
POPLAR           N/A     63  34  34 SW10G16   29.57S
SCOBEY           N/A     58  29  33 CALM      29.58
$$

MTZ028>42-056>058-210200-
SOUTHCENTRAL AND SOUTHEAST MONTANA

CITY           SKY/WX    TMP DP  RH WIND       PRES   REMARKS
BAKER          CLEAR     59  27  29 S9        29.67S
BILLINGS       PTCLDY    62  31  31 SW14G23   29.61R
LIVINGSTON     CLOUDY    50  38  63 W8        29.65R
MILES CITY     CLEAR     60  32  34 SW10      29.60R
BIG TIMBER     MOCLDY    50  37  62 W18G24    29.67R
EKALAKA          N/A     61  21  21 S2        29.71R
HARLOWTON      CLOUDY    48  38  69 MISG      29.67R
LAUREL           N/A     59  32  36 W14G22    29.62R
ROUNDUP          N/A     57  32  39 SW13      29.57R
$$

REGIONAL REPORTS...DAKOTAS

CITY           SKY/WX    TMP DP  RH WIND       PRES   REMARKS
WILLISTON      CLEAR     58  38  47 SE6       29.60R
MINOT          CLEAR     62  33  33 S7        29.64R
DICKINSON      CLEAR     54  32  43 S7        29.67R
BEACH            N/A     57  28  33 S8        29.67S
CROSBY           N/A     54  34  47 SW7       29.59S
TIOGA            N/A     54  34  47 SW9       29.63R
WATFORD CITY     N/A     57  32  38 S6        29.62R
BISMARCK       CLEAR     55  40  56 S8        29.72S
GRAND FORKS    PTCLDY    58  47  66 S8        29.76R
FARGO          CLEAR     63  43  48 S9        29.81R
BUFFALO SD       N/A     62  27  26 SW13      29.65R
$$

REGIONAL REPORTS...WYOMING/IDAHO/WASHINGTON

CITY           SKY/WX    TMP DP  RH WIND       PRES   REMARKS
GILLETTE       CLEAR     60  30  32 SW5       29.75S
SHERIDAN       CLEAR     62  26  25 S8        29.68S
BUFFALO WY     CLOUDY    57  23  26 S10       29.76R
CODY           CLEAR     56  29  35 SW16G26   29.72R
YELLOWSTONE LA   N/A     38  35  89 VRB3      29.81S
IDAHO FALLS    CLOUDY    59  35  40 SW17G23   29.72R
SALMON         CLOUDY    45  37  73 N12G25    29.72R
BOISE          LGT RAIN  53  43  68 S9        29.73R
SPOKANE        MOCLDY    45  45 100 SW3       29.69R
$$

REGIONAL REPORTS...ALBERTA

CITY           SKY/WX    TMP DP  RH WIND       PRES   REMARKS
EDMONTON       CLOUDY    39  39 100 N12G21    29.47  WCI  32
CALGARY        LGT RAIN  43  34  70 N13G23    29.51R
LETHBRIDGE     MOCLDY    54  23  30 W20G26    29.48R
MEDICINE HAT   MOCLDY    54  27  35 N8        29.46R
$$

REGIONAL REPORTS...SASKATCHEWAN

CITY           SKY/WX    TMP DP  RH WIND       PRES   REMARKS
SWIFT CURRENT  PTCLDY    54  23  30 SW9G17    29.45R
REGINA         PTCLDY    52  32  46 SW9       29.49S
SASKATOON      PTCLDY    54  34  47 SW9       29.40R
$$




USA.gov is the U.S. government's official web portal to all federal, state and local government web resources and services.